THORAD AGENA D DEB, 4637

Orbit data source: Space-Track

THORAD AGENA D DEB, 4637 is space debris in SSO originally from a launch on Wed, 08 Apr 1970 UTC launched from the Air Force Western Test Range (AFWTR). Debris objects in space refer to the collection of defunct objects orbiting the Earth. Examples of debris include non-operational satellites, rocket bodies, and fragments generated from explosions, collisions, or faulty payload assembly.

Loading next visibility...
Identifier
4637, 1970-025V
Orbit
SSO
Country
Flag of USUS
Related business
Manufacturer
Unknown
Mission
Spacecraft
Bus & Motor
Unknown
Mass
Unknown
Launch date (UTC)
1970-04-08 (56 years ago)
Launch vehicle
Unknown
Launch site
Air Force Western Test Range (AFWTR)
Object type
Payload
Rocket body
Debris
Shape & HBR
Unknown shape, 0.2 m
Radar Cross Section
Medium (>0.1 m² and <1 m²)

Expand to show TLE details & history
Last TLE update: 6 hours ago

TLE from 6 hours ago
0 THORAD AGENA D DEB
1  4637U 70025V   26132.86750523  .00000037  00000-0  10395-3 0  9995
2  4637  99.9147 170.2375 0024702  60.4867 121.6784 13.64764966782819
Epoch: 2026-05-12T20:49Z
TLE epoch observation values (Epoch: 2026-05-12T20:49:12.451Z)
Latitude
-2.49669°
Longitude
166.86547°
Altitude
1,031.212 km
Speed
7.331 km/s
True Right ascension
23h 19m 12s
True Declination
-2° 28' 56"
Sunlit
Object was in daylight at epoch
Visualization orbit readout
Latitude
Unknown
Longitude
Unknown
Altitude
Unknown
Speed
Unknown
Apparent Right ascension
Unknown
Apparent Declination
Unknown
Sunlit
N/A
Visualization observer readout
Local Sidereal Time
11:02:08
Azimuth
Unknown
Elevation
Unknown
Doppler factor
Unknown
Orbital elements
Apogee altitude
1,033.983 km
Perigee altitude
997.454 km
Semi-major axis
7,393.855 km
Eccentricity
0.00247
Inclination
99.9147°
RAAN
170.2375°
Arg. of periapsis
60.4867°
True anomaly
121.9189°
Mean anomaly
121.6784°
Eccentric anomaly
121.79869°
Mean motion
3.41379 °/min
Orbital period
105.45 mins
BSTAR
0.00010395

Documentation

Showing up to 5 results
|